[[{"header":{"parameterUnit":"m.s-1","parameterCategory":1,"la1":30.2991,"la2":30.254,"lo1":-89.0895,"lo2":-89.0444,"dy":0.0017,"dx":0.0017,"nx":28,"ny":28,"refTime":"2025-04-23T09:00:00:Z","depth":0,"parameterNumber":2,"parameterNumberName":"U-component_of_WINDS"},"data":[0,0,0,0,0,0,0,0,0,0,0,0,0,0,0,0,0,0,0,0,0,0,0,0,0,0,0,0,0,0,0,0,0,0,0,0,0,0,0,0,0,0,0,0,0,0,0,0,0,0,0,0,0,0,0,0,0,0,-2.3271,-2.3271,0,-2.3287,-2.3287,-2.3288,-2.3259,-2.3258,-2.3257,-2.3256,-2.3272,-2.3274,-2.3275,0,0,0,0,0,0,0,0,0,0,0,0,0,-2.3216,-2.3217,-2.3271,-2.3271,-2.3271,-2.3287,-2.3287,-2.3288,-2.3259,-2.3258,-2.3256,-2.3255,-2.3272,-2.3273,-2.3275,0,0,0,0,0,0,0,0,0,0,0,0,0,-2.3237,-2.3217,-2.3271,-2.3259,-2.3258,-2.3287,-2.3287,-2.3288,-2.3259,-2.3258,-2.3256,-2.3255,-2.3271,-2.3273,-2.3275,-2.3317,0,0,-2.3281,-2.3282,0,0,0,0,0,0,0,0,-2.3235,-2.3239,-2.326,-2.326,-2.3259,-2.3269,-2.3274,-2.3298,-2.3259,-2.3259,-2.3256,-2.3254,-2.3273,-2.3274,-2.3281,-2.3318,-2.3318,-2.3282,-2.3283,-2.3284,-2.3284,0,0,0,0,0,0,0,-2.3234,-2.3238,-2.3277,-2.3261,-2.326,-2.3253,-2.3254,-2.3278,-2.3274,-2.3259,-2.3257,-2.3259,-2.3272,-2.3279,-2.3281,-2.3319,-2.3282,-2.3283,-2.3285,-2.3285,-2.3391,-2.3393,0,0,0,0,0,0,-2.3234,-2.3237,-2.3277,-2.3278,-2.3243,-2.3255,-2.3257,-2.3268,-2.3273,-2.3273,-2.326,-2.3258,-2.3276,-2.3278,-2.3281,-2.333,-2.3284,-2.3286,-2.3287,-2.339,-2.3392,-2.3393,0,0,0,0,0,0,-2.3233,-2.3238,-2.3276,-2.3257,-2.3261,-2.3258,-2.327,-2.3269,-2.3275,-2.3274,-2.3273,-2.3268,-2.3275,-2.3278,-2.3308,-2.333,-2.3287,-2.3288,-2.3388,-2.339,-2.3392,-2.3428,0,0,0,0,0,0,-2.3231,-2.3238,-2.3253,-2.3257,-2.3262,-2.3303,-2.3271,-2.327,-2.3279,-2.3276,-2.3281,-2.3281,-2.3274,-2.3306,-2.331,-2.3332,-2.329,-2.3386,-2.3389,-2.3392,-2.3425,-2.3432,-2.3437,0,0,0,0,0,-2.323,-2.3262,-2.3254,-2.3259,-2.3282,-2.3304,-2.3307,-2.3298,-2.3281,-2.3297,-2.3296,-2.3281,-2.3328,-2.3309,-2.3314,-2.3337,-2.3384,-2.3388,-2.3391,-2.3422,-2.343,-2.3437,0,0,0,0,0,0,-2.326,-2.3263,-2.3253,-2.3289,-2.3297,-2.3299,-2.3319,-2.3307,-2.332,-2.3316,-2.3305,-2.3307,-2.3339,-2.3341,-2.332,-2.3378,-2.3353,-2.3358,-2.3375,-2.3382,-2.3388,-2.3386,-2.3292,0,0,0,0,0,-2.3272,-2.329,-2.3291,-2.3322,-2.3326,-2.3322,-2.3332,-2.3324,-2.3332,-2.3335,-2.3337,-2.3345,-2.3361,-2.3372,-2.3387,-2.3426,-2.3427,-2.3444,-2.3451,-2.3456,-2.3459,-2.348,-2.3488,-2.3405,-2.3405,-2.3405,0,0,-2.3294,-2.3298,-2.331,-2.3328,-2.3333,-2.3352,-2.3325,-2.3346,-2.336,-2.3338,-2.3366,-2.3368,-2.3377,-2.3411,-2.3426,-2.3414,-2.3483,-2.346,-2.3464,-2.3465,-2.3485,-2.3492,-2.3499,-2.3408,-2.3407,-2.3407,0,0,-2.3345,-2.335,-2.3376,-2.3382,-2.3391,-2.3388,-2.3394,-2.3399,-2.34,-2.3428,-2.3412,-2.3429,-2.3458,-2.3464,-2.3471,-2.3526,-2.3513,-2.3532,-2.3563,-2.3583,-2.359,-2.3595,-2.3615,-2.3622,-2.3536,-2.3536,-2.3536,0,-2.3372,-2.34,-2.3391,-2.3414,-2.3422,-2.3404,-2.3431,-2.3437,-2.345,-2.3457,-2.3443,-2.3479,-2.3483,-2.3519,-2.3532,-2.3539,-2.3546,-2.353,-2.359,-2.3595,-2.36,-2.3618,-2.3626,-2.3538,-2.3538,-2.3538,-2.3538,0,-2.3433,-2.3453,-2.3473,-2.3486,-2.3497,-2.3522,-2.3517,-2.3529,-2.3522,-2.3521,-2.355,-2.3555,-2.3571,-2.3579,-2.3572,-2.3614,-2.3606,-2.3591,-2.3566,-2.3611,-2.3627,-2.3634,-2.3541,-2.3541,-2.354,-2.3539,0,0,-2.3502,-2.3511,-2.3518,-2.3524,-2.3533,-2.3548,-2.3572,-2.3588,-2.3599,-2.3609,-2.3629,-2.3654,-2.3641,-2.3649,-2.3642,-2.3661,-2.3704,-2.3643,-2.3643,-2.3654,-2.375,-2.3761,-2.3769,-2.3695,-2.3697,-2.3698,-2.3749,0,-2.3552,-2.3593,-2.3586,-2.3626,-2.3645,-2.3628,-2.365,-2.3657,-2.3657,-2.3673,-2.3673,-2.3691,-2.3672,-2.3677,-2.3694,-2.3695,-2.3723,-2.3691,-2.3713,-2.3714,-2.371,-2.3778,-2.3789,-2.3837,-2.3756,-2.3757,-2.3758,0,-2.3615,-2.3628,-2.367,-2.3676,-2.3684,-2.3703,-2.3717,-2.3732,-2.3741,-2.374,-2.375,-2.374,-2.3765,-2.374,-2.3774,-2.3752,-2.3761,-2.3763,-2.3765,-2.3766,-2.3738,-2.3779,-2.3852,-2.3859,-2.3768,-2.3768,-2.3767,0,-2.3661,-2.3688,-2.3717,-2.3723,-2.3731,-2.3745,-2.3749,-2.3756,-2.3767,-2.3779,-2.3786,-2.3801,-2.381,-2.3822,-2.3817,-2.38,-2.3852,-2.3827,-2.3851,-2.3851,-2.3861,-2.3861,-2.3936,-2.3869,-2.3869,-2.3869,-2.3869,0,-2.3716,-2.3743,-2.3737,-2.3755,-2.3784,-2.3777,-2.3806,-2.3808,-2.3815,-2.3833,-2.382,-2.3837,-2.383,-2.3847,-2.3844,-2.3872,-2.3876,-2.3876,-2.3874,-2.3876,-2.3876,-2.3881,-2.3877,-2.3871,-2.3871,-2.387,-2.387,0,-2.3771,-2.3769,-2.3799,-2.3805,-2.3807,-2.3828,-2.3833,-2.385,-2.3849,-2.3872,-2.3877,-2.3877,-2.3896,-2.3893,-2.3914,-2.3912,-2.3947,-2.3942,-2.3943,-2.3942,-2.3966,-2.3964,-2.4046,-2.4057,-2.3984,-2.3985,-2.3985,0,-2.3807,-2.3826,-2.3835,-2.3846,-2.3851,-2.3869,-2.3879,-2.3873,-2.3885,-2.3897,-2.3912,-2.393,-2.3944,-2.3976,-2.3977,-2.3994,-2.3988,-2.4016,-2.3991,-2.3992,-2.3988,-2.3986,-2.3988,-2.4021,-2.4022,-2.4023,-2.4023,0,-2.3869,-2.3867,-2.3883,-2.3898,-2.3911,-2.3923,-2.3934,-2.3944,-2.3939,-2.3952,-2.3972,-2.3983,-2.4005,-2.4023,-2.4039,-2.4043,-2.4032,-2.4031,-2.4038,-2.4039,-2.4039,-2.4039,-2.3956,-2.4029,-2.4029,-2.4028,-2.4028,-2.4028,-2.3915,-2.3932,-2.394,-2.3958,-2.3966,-2.3976,-2.3992,-2.3994,-2.401,-2.4027,-2.4023,-2.4045,-2.4055,-2.4074,-2.4081,-2.4098,-2.4088,-2.4097,-2.4099,-2.4101,-2.4104,-2.4038,-2.4101,-2.4101,-2.4101,-2.4101,-2.41,0,-2.3976,-2.3981,-2.3998,-2.4013,-2.4027,-2.4017,-2.4028,-2.4041,-2.4061,-2.407,-2.4084,-2.4107,-2.4125,-2.4128,-2.4145,-2.4159,-2.4154,-2.4163,-2.4162,-2.4163,-2.4113,-2.4105,-2.4167,-2.4167,-2.4167,-2.4167,-2.4167,-2.4167,-2.401,-2.4038,-2.4037,-2.4069,-2.4074,-2.4095,-2.4103,-2.4112,-2.412,-2.4146,-2.4161,-2.4163,-2.417,-2.4188,-2.4204,-2.4205,-2.4211,-2.4222,-2.4221,-2.4173,-2.4166,-2.416,-2.4153,-2.4224,-2.4224,-2.4269,-2.427,-2.427]},{"header":{"parameterUnit":"m.s-1","parameterCategory":1,"la1":30.2991,"la2":30.254,"lo1":-89.0895,"lo2":-89.0444,"dy":0.0017,"dx":0.0017,"nx":28,"ny":28,"refTime":"2025-04-23T09:00:00:Z","depth":0,"parameterNumber":3,"parameterNumberName":"V-component_of_WINDS"},"data":[0,0,0,0,0,0,0,0,0,0,0,0,0,0,0,0,0,0,0,0,0,0,0,0,0,0,0,0,0,0,0,0,0,0,0,0,0,0,0,0,0,0,0,0,0,0,0,0,0,0,0,0,0,0,0,0,0,0,3.2041,3.2042,0,3.2081,3.2082,3.2082,3.2063,3.2062,3.2061,3.206,3.2099,3.2101,3.2103,0,0,0,0,0,0,0,0,0,0,0,0,0,3.1946,3.1948,3.2041,3.2042,3.2042,3.2081,3.2082,3.2082,3.2063,3.2062,3.206,3.2059,3.2098,3.21,3.2103,0,0,0,0,0,0,0,0,0,0,0,0,0,3.1987,3.1949,3.2041,3.2037,3.2037,3.2081,3.2082,3.2082,3.2063,3.2062,3.206,3.2059,3.2097,3.21,3.2103,3.2152,0,0,3.2112,3.2114,0,0,0,0,0,0,0,0,3.1985,3.1991,3.2037,3.2038,3.2038,3.2066,3.2063,3.2106,3.2064,3.2053,3.206,3.2058,3.2089,3.2092,3.2103,3.2154,3.2156,3.2113,3.2114,3.2116,3.2117,0,0,0,0,0,0,0,3.1982,3.1989,3.2057,3.2038,3.2038,3.2033,3.2037,3.2071,3.2079,3.2054,3.2053,3.2058,3.2089,3.21,3.2104,3.2156,3.2113,3.2115,3.2117,3.2118,3.225,3.2252,0,0,0,0,0,0,3.1979,3.1986,3.2056,3.2058,3.2007,3.2036,3.2041,3.2058,3.2079,3.208,3.2059,3.2057,3.2096,3.2101,3.2105,3.2165,3.2116,3.2118,3.212,3.2249,3.2251,3.2252,0,0,0,0,0,0,3.1978,3.1986,3.2054,3.2022,3.203,3.2039,3.2059,3.206,3.2071,3.2083,3.2084,3.207,3.2095,3.2101,3.2141,3.2166,3.212,3.2123,3.2247,3.2249,3.2252,3.2284,0,0,0,0,0,0,3.1975,3.1985,3.2004,3.2023,3.2032,3.209,3.2061,3.2062,3.2077,3.2074,3.2093,3.2094,3.2094,3.2137,3.2144,3.2169,3.2125,3.2244,3.2248,3.2251,3.228,3.2287,3.2293,0,0,0,0,0,3.1972,3.2011,3.2005,3.2014,3.2056,3.2091,3.2097,3.2096,3.2079,3.2098,3.2105,3.2094,3.2162,3.2141,3.2149,3.2175,3.2243,3.2247,3.225,3.2278,3.2286,3.2292,0,0,0,0,0,0,3.1995,3.2013,3.2007,3.2054,3.2071,3.2088,3.2112,3.2105,3.2126,3.2123,3.2121,3.2125,3.2167,3.2175,3.2151,3.2224,3.22,3.2205,3.2217,3.2225,3.2231,3.2228,3.2127,0,0,0,0,0,3.2005,3.2033,3.2047,3.2087,3.2096,3.2103,3.2118,3.2116,3.2134,3.2141,3.2151,3.2168,3.2193,3.2209,3.2233,3.2281,3.2285,3.2303,3.231,3.2314,3.2319,3.2346,3.2354,3.2265,3.2265,3.2265,0,0,3.2027,3.2041,3.2058,3.2092,3.2105,3.2134,3.2109,3.2139,3.216,3.2145,3.2184,3.2192,3.221,3.2255,3.2275,3.2263,3.2345,3.2319,3.2323,3.2326,3.2351,3.2359,3.2367,3.2268,3.2267,3.2267,0,0,3.2082,3.2095,3.213,3.2144,3.2165,3.2169,3.2177,3.2195,3.22,3.2239,3.2229,3.2253,3.2296,3.231,3.2323,3.2384,3.2374,3.2392,3.2423,3.245,3.2457,3.2463,3.2485,3.2493,3.2396,3.2397,3.2397,0,3.2107,3.2149,3.2149,3.2181,3.2196,3.2184,3.222,3.2233,3.226,3.2271,3.2257,3.2312,3.2323,3.2371,3.2386,3.2397,3.2406,3.239,3.2456,3.2462,3.2468,3.2489,3.2497,3.2399,3.2398,3.2398,3.2398,0,3.2179,3.2208,3.2234,3.2262,3.228,3.2313,3.2317,3.2336,3.2333,3.2338,3.2378,3.2392,3.2419,3.243,3.2426,3.2477,3.2469,3.2456,3.2431,3.2478,3.2498,3.2506,3.2401,3.2401,3.24,3.24,0,0,3.2249,3.2276,3.2286,3.2298,3.2321,3.2343,3.2376,3.2403,3.2419,3.2438,3.2465,3.2503,3.2491,3.2505,3.2503,3.2526,3.2574,3.251,3.251,3.2522,3.2632,3.2642,3.2651,3.2568,3.2569,3.2571,3.263,0,3.2305,3.2364,3.2365,3.2418,3.2446,3.2435,3.2464,3.248,3.2487,3.251,3.2517,3.2544,3.2525,3.2534,3.2556,3.2564,3.2596,3.2559,3.2593,3.2595,3.2589,3.2662,3.2673,3.2728,3.2638,3.2639,3.264,0,3.2379,3.2402,3.2458,3.2477,3.2489,3.2515,3.254,3.2563,3.2581,3.2584,3.2601,3.2596,3.2629,3.2603,3.2649,3.2624,3.2638,3.2644,3.2646,3.2649,3.262,3.2667,3.2746,3.2754,3.2652,3.2651,3.265,0,3.2425,3.247,3.2509,3.252,3.2543,3.2562,3.2572,3.2589,3.2606,3.2627,3.2638,3.2663,3.2676,3.2696,3.2698,3.2679,3.2744,3.2718,3.2747,3.2747,3.2761,3.276,3.2843,3.277,3.277,3.2769,3.2769,0,3.2489,3.2524,3.2531,3.2555,3.2594,3.2595,3.2633,3.2642,3.2657,3.2683,3.2675,3.2699,3.27,3.2725,3.2726,3.2764,3.277,3.2773,3.2773,3.2774,3.2774,3.2783,3.278,3.2772,3.2771,3.2771,3.277,0,3.2547,3.2553,3.2596,3.2614,3.262,3.2648,3.2663,3.2686,3.2692,3.2725,3.2732,3.2741,3.277,3.2773,3.2807,3.2808,3.2853,3.2849,3.2847,3.2847,3.2876,3.2873,3.2968,3.2981,3.2899,3.2899,3.29,0,3.2587,3.2614,3.2636,3.2653,3.2664,3.2692,3.2709,3.271,3.2728,3.2752,3.2772,3.28,3.2823,3.2869,3.2878,3.2903,3.29,3.2932,3.2904,3.2904,3.2901,3.29,3.2902,3.2937,3.2938,3.2939,3.2939,0,3.2658,3.266,3.2685,3.2712,3.2732,3.2753,3.2772,3.2787,3.2791,3.2811,3.2841,3.2858,3.2893,3.2921,3.2946,3.2956,3.2949,3.2948,3.2956,3.2957,3.2956,3.2958,3.2863,3.2946,3.2945,3.2945,3.2944,3.2944,3.2709,3.2732,3.2752,3.278,3.2795,3.2814,3.2837,3.2846,3.2871,3.29,3.2899,3.2932,3.295,3.2983,3.2995,3.302,3.301,3.3021,3.3024,3.3027,3.3031,3.2951,3.3025,3.3024,3.3024,3.3024,3.3024,0,3.278,3.2792,3.2818,3.2846,3.2869,3.286,3.2881,3.29,3.293,3.2947,3.297,3.3005,3.3032,3.3043,3.307,3.3088,3.3085,3.3095,3.3094,3.3096,3.3038,3.3029,3.3097,3.3097,3.3097,3.3097,3.3097,3.3097,3.2819,3.2859,3.2864,3.2911,3.2923,3.2955,3.2968,3.2985,3.3,3.3039,3.3062,3.3069,3.3085,3.3112,3.3137,3.314,3.315,3.3162,3.3163,3.3108,3.31,3.3093,3.3085,3.3164,3.3164,3.3219,3.3219,3.322]}]]